SAA060 FAOR-DNMM

Flight info

Callsign SAA060
Flight time N/A
Altitude 36000
Route LIV1C VASUR UZ21 ITROL UQ25 RUDAS UT941 ANIPO/N0482F380 UT941 VNA UA400 STM UR603 ETVOV ETVOV1N
Aircraft A346/H-SDE2E3FGHIJ3J4J5M1RWXY/LB1D1

Departure

Time N/A
Airport O.R. Tambo International Airport (FAOR)

Arrival

Time 2026-05-08 18:32
Airport Murtala Muhammed International Airport (DNMM)
Time Latitude Longitude Altitude Speed Heading
2026-05-08 13:48 -9.17004 13.53216 35882 ft 482 kts 318°
2026-05-08 13:48 -9.14471 13.50989 35881 ft 482 kts 318°
2026-05-08 13:49 -9.09409 13.46537 35883 ft 482 kts 318°
2026-05-08 13:49 -9.04377 13.42116 35882 ft 482 kts 318°
2026-05-08 13:50 -8.99305 13.37663 35882 ft 482 kts 318°
2026-05-08 13:50 -8.94230 13.33208 35881 ft 483 kts 318°
2026-05-08 13:51 -8.89153 13.28755 35883 ft 483 kts 318°
2026-05-08 13:51 -8.83997 13.24379 35881 ft 484 kts 321°
2026-05-08 13:52 -8.78540 13.20384 35882 ft 485 kts 323°
2026-05-08 13:52 -8.73032 13.16441 35882 ft 485 kts 323°
2026-05-08 13:53 -8.67526 13.12501 35882 ft 485 kts 324°
2026-05-08 13:53 -8.62016 13.08557 35882 ft 485 kts 324°
2026-05-08 13:54 -8.56499 13.04610 35882 ft 485 kts 324°
2026-05-08 13:54 -8.50990 13.00668 35882 ft 485 kts 324°
2026-05-08 13:55 -8.45474 12.96724 35883 ft 485 kts 324°
2026-05-08 13:56 -8.37198 12.90807 35881 ft 486 kts 324°
2026-05-08 13:56 -8.31675 12.86860 35881 ft 486 kts 324°
2026-05-08 13:57 -8.26139 12.82906 35882 ft 487 kts 324°
2026-05-08 13:57 -8.20615 12.78961 35882 ft 487 kts 324°
2026-05-08 13:58 -8.15086 12.75014 35881 ft 487 kts 324°
2026-05-08 13:58 -8.09567 12.71076 35881 ft 487 kts 324°
2026-05-08 13:59 -8.03989 12.67097 35881 ft 487 kts 324°
2026-05-08 13:59 -7.98408 12.63118 35882 ft 488 kts 324°
2026-05-08 14:00 -7.92881 12.59177 35882 ft 489 kts 324°
2026-05-08 14:00 -7.87288 12.55193 35881 ft 489 kts 324°
2026-05-08 14:01 -7.81760 12.51256 35882 ft 489 kts 324°
2026-05-08 14:01 -7.76197 12.47294 35882 ft 489 kts 324°
2026-05-08 14:02 -7.70631 12.43333 35884 ft 489 kts 324°
2026-05-08 14:02 -7.65069 12.39374 35889 ft 489 kts 324°
2026-05-08 14:03 -7.59506 12.35417 35891 ft 489 kts 324°
2026-05-08 14:03 -7.53938 12.31458 35891 ft 489 kts 324°
2026-05-08 14:04 -7.48371 12.27501 35891 ft 489 kts 324°
2026-05-08 14:04 -7.42804 12.23546 35891 ft 489 kts 324°
2026-05-08 14:05 -7.37236 12.19591 35891 ft 489 kts 324°
2026-05-08 14:05 -7.31674 12.15643 35891 ft 489 kts 324°
2026-05-08 14:06 -7.26101 12.11690 35891 ft 490 kts 324°
2026-05-08 14:06 -7.20536 12.07742 35898 ft 490 kts 324°
2026-05-08 14:07 -7.14966 12.03785 35900 ft 490 kts 324°
2026-05-08 14:07 -7.09403 11.99838 35901 ft 489 kts 324°
2026-05-08 14:08 -7.03829 11.95887 35900 ft 489 kts 324°
2026-05-08 14:08 -6.98267 11.91949 35900 ft 489 kts 324°
2026-05-08 14:09 -6.92712 11.88016 35900 ft 489 kts 324°
2026-05-08 14:09 -6.87151 11.84081 35900 ft 489 kts 324°
2026-05-08 14:10 -6.81576 11.80137 35900 ft 489 kts 324°
2026-05-08 14:10 -6.76007 11.76198 35901 ft 489 kts 324°
2026-05-08 14:11 -6.70476 11.72288 35900 ft 489 kts 324°
2026-05-08 14:11 -6.64906 11.68351 35900 ft 489 kts 324°
2026-05-08 14:12 -6.59336 11.64416 35900 ft 489 kts 324°
2026-05-08 14:12 -6.53767 11.60481 35900 ft 489 kts 324°
2026-05-08 14:13 -6.48200 11.56550 35901 ft 489 kts 324°
2026-05-08 14:13 -6.42636 11.52622 35901 ft 489 kts 324°
2026-05-08 14:14 -6.37059 11.48686 35900 ft 489 kts 324°
2026-05-08 14:14 -6.31495 11.44759 35900 ft 489 kts 324°
2026-05-08 14:15 -6.25925 11.40830 35901 ft 489 kts 324°
2026-05-08 14:15 -6.20352 11.36900 35900 ft 489 kts 325°
2026-05-08 14:16 -6.14783 11.32973 35900 ft 489 kts 325°
2026-05-08 14:16 -6.09219 11.29050 35900 ft 489 kts 325°
2026-05-08 14:17 -6.03649 11.25126 35900 ft 489 kts 325°
2026-05-08 14:17 -5.98122 11.21232 35901 ft 489 kts 325°
2026-05-08 14:18 -5.92511 11.17278 35900 ft 489 kts 325°
2026-05-08 14:18 -5.86971 11.13378 35900 ft 489 kts 325°
2026-05-08 14:19 -5.81391 11.09451 35900 ft 489 kts 325°
2026-05-08 14:19 -5.75812 11.05525 35900 ft 490 kts 325°
2026-05-08 14:20 -5.70231 11.01598 35901 ft 490 kts 325°
2026-05-08 14:20 -5.64648 10.97671 35901 ft 490 kts 325°
2026-05-08 14:21 -5.59058 10.93741 35900 ft 490 kts 325°
2026-05-08 14:21 -5.53477 10.89817 35888 ft 490 kts 325°
2026-05-08 14:22 -5.47887 10.85888 35889 ft 490 kts 325°
2026-05-08 14:22 -5.42306 10.81968 35890 ft 490 kts 325°
2026-05-08 14:23 -5.36717 10.78046 35891 ft 490 kts 325°
2026-05-08 14:23 -5.31136 10.74129 35891 ft 490 kts 325°
2026-05-08 14:24 -5.25569 10.70181 35891 ft 490 kts 325°
2026-05-08 14:24 -5.20014 10.66211 35892 ft 490 kts 325°
2026-05-08 14:25 -5.14466 10.62253 35890 ft 489 kts 325°
2026-05-08 14:25 -5.08916 10.58302 35891 ft 489 kts 325°
2026-05-08 14:26 -5.03364 10.54351 35891 ft 489 kts 325°
2026-05-08 14:26 -4.97815 10.50404 35891 ft 489 kts 325°
2026-05-08 14:27 -4.92264 10.46460 35892 ft 489 kts 325°
2026-05-08 14:27 -4.86711 10.42511 35891 ft 488 kts 325°
2026-05-08 14:28 -4.81175 10.38570 35891 ft 488 kts 325°
2026-05-08 14:28 -4.75634 10.34628 35885 ft 488 kts 325°
2026-05-08 14:29 -4.70089 10.30689 35883 ft 488 kts 325°
2026-05-08 14:29 -4.64588 10.26780 35881 ft 487 kts 325°
2026-05-08 14:30 -4.59059 10.22845 35882 ft 487 kts 325°
2026-05-08 14:30 -4.53538 10.18917 35882 ft 487 kts 325°
2026-05-08 14:31 -4.48936 10.15647 35882 ft 487 kts 325°
2026-05-08 14:31 -4.43412 10.11724 35883 ft 486 kts 325°
2026-05-08 14:32 -4.35131 10.05847 35890 ft 486 kts 325°
2026-05-08 14:32 -4.29608 10.01931 35892 ft 486 kts 325°
2026-05-08 14:33 -4.24093 9.98018 35890 ft 485 kts 325°
2026-05-08 14:33 -4.18580 9.94100 35891 ft 485 kts 325°
2026-05-08 14:34 -4.13075 9.90189 35891 ft 485 kts 325°
2026-05-08 14:34 -4.07565 9.86279 35892 ft 485 kts 325°
2026-05-08 14:35 -4.02056 9.82372 35891 ft 485 kts 325°
2026-05-08 14:35 -3.96550 9.78470 35891 ft 485 kts 325°
2026-05-08 14:36 -3.91074 9.74591 35891 ft 485 kts 325°
2026-05-08 14:36 -3.85561 9.70686 35892 ft 485 kts 325°
2026-05-08 14:37 -3.80044 9.66771 35891 ft 485 kts 325°
2026-05-08 14:37 -3.74533 9.62858 35891 ft 486 kts 325°
2026-05-08 14:38 -3.69010 9.58942 35898 ft 486 kts 325°
2026-05-08 14:38 -3.63495 9.55033 35900 ft 485 kts 325°
2026-05-08 14:39 -3.57974 9.51125 35900 ft 486 kts 325°
2026-05-08 14:39 -3.52445 9.47209 35900 ft 486 kts 326°
2026-05-08 14:40 -3.46923 9.43302 35900 ft 486 kts 326°
2026-05-08 14:40 -3.41399 9.39395 35901 ft 486 kts 326°
2026-05-08 14:41 -3.35870 9.35482 35900 ft 487 kts 326°
2026-05-08 14:41 -3.30378 9.31586 35900 ft 487 kts 326°
2026-05-08 14:42 -3.24853 9.27670 35901 ft 487 kts 326°
2026-05-08 14:42 -3.19318 9.23752 35900 ft 487 kts 326°
2026-05-08 14:43 -3.13779 9.19832 35901 ft 487 kts 326°
2026-05-08 14:43 -3.08242 9.15916 35900 ft 487 kts 326°
2026-05-08 14:44 -3.02706 9.12001 35908 ft 487 kts 326°
2026-05-08 14:44 -2.97175 9.08091 35910 ft 487 kts 326°
2026-05-08 14:45 -2.91629 9.04172 35909 ft 488 kts 326°
2026-05-08 14:45 -2.86090 9.00258 35910 ft 487 kts 326°
2026-05-08 14:46 -2.80543 8.96339 35909 ft 487 kts 326°
2026-05-08 14:46 -2.75013 8.92422 35909 ft 487 kts 326°
2026-05-08 14:47 -2.69468 8.88496 35909 ft 488 kts 326°
2026-05-08 14:47 -2.63925 8.84574 35910 ft 487 kts 326°
2026-05-08 14:48 -2.58389 8.80662 35909 ft 487 kts 326°
2026-05-08 14:48 -2.52848 8.76748 35911 ft 487 kts 326°
2026-05-08 14:49 -2.47347 8.72860 35919 ft 487 kts 326°
2026-05-08 14:49 -2.41770 8.68921 35926 ft 487 kts 326°
2026-05-08 14:50 -2.36265 8.65033 35927 ft 487 kts 326°
2026-05-08 14:50 -2.30732 8.61125 35929 ft 487 kts 326°
2026-05-08 14:51 -2.25195 8.57217 35927 ft 487 kts 326°
2026-05-08 14:51 -2.19658 8.53309 35927 ft 487 kts 326°
2026-05-08 14:52 -2.11350 8.47448 35930 ft 487 kts 326°
2026-05-08 14:53 -2.05821 8.43545 35929 ft 487 kts 326°
2026-05-08 14:53 -2.00288 8.39629 35937 ft 487 kts 326°
2026-05-08 14:54 -1.94763 8.35724 35937 ft 487 kts 326°
2026-05-08 14:54 -1.89231 8.31819 35937 ft 487 kts 326°
2026-05-08 14:55 -1.83689 8.27909 35937 ft 487 kts 326°
2026-05-08 14:55 -1.78152 8.24004 35938 ft 487 kts 327°
2026-05-08 14:56 -1.72616 8.20099 35937 ft 487 kts 326°
2026-05-08 14:56 -1.67084 8.16196 35938 ft 487 kts 327°
2026-05-08 14:57 -1.61582 8.12320 35938 ft 487 kts 327°
2026-05-08 14:57 -1.56033 8.08416 35937 ft 487 kts 327°
2026-05-08 14:58 -1.50486 8.04515 35938 ft 487 kts 327°
2026-05-08 14:58 -1.44937 8.00614 35937 ft 488 kts 327°
2026-05-08 14:59 -1.39386 7.96712 35937 ft 487 kts 327°
2026-05-08 14:59 -1.31065 7.90850 35937 ft 488 kts 327°
2026-05-08 15:00 -1.25528 7.86926 35938 ft 488 kts 327°
2026-05-08 15:00 -1.19984 7.83001 35937 ft 488 kts 327°
2026-05-08 15:01 -1.14437 7.79080 35937 ft 488 kts 327°
2026-05-08 15:01 -1.08882 7.75157 35937 ft 488 kts 327°
2026-05-08 15:02 -1.03328 7.71231 35937 ft 489 kts 327°
2026-05-08 15:02 -0.97782 7.67310 35937 ft 489 kts 327°
2026-05-08 15:03 -0.92221 7.63384 35937 ft 489 kts 327°
2026-05-08 15:03 -0.86654 7.59462 35937 ft 489 kts 327°
2026-05-08 15:04 -0.81088 7.55537 35937 ft 489 kts 327°
2026-05-08 15:04 -0.75517 7.51623 35944 ft 490 kts 327°
2026-05-08 15:05 -0.69975 7.47731 35946 ft 490 kts 327°
2026-05-08 15:05 -0.64411 7.43797 35939 ft 490 kts 327°
2026-05-08 15:06 -0.58844 7.39864 35938 ft 490 kts 327°
2026-05-08 15:06 -0.53278 7.35939 35938 ft 490 kts 327°
2026-05-08 15:07 -0.47704 7.32010 35938 ft 490 kts 327°
2026-05-08 15:07 -0.42133 7.28081 35943 ft 490 kts 327°
2026-05-08 15:08 -0.37512 7.24815 35946 ft 490 kts 327°
2026-05-08 15:08 -0.31001 7.20218 35947 ft 490 kts 327°
2026-05-08 15:09 -0.25436 7.16294 35946 ft 490 kts 327°
2026-05-08 15:09 -0.19868 7.12369 35947 ft 489 kts 327°
2026-05-08 15:10 -0.14306 7.08449 35951 ft 489 kts 327°
2026-05-08 15:10 -0.08739 7.04525 35955 ft 489 kts 327°
2026-05-08 15:11 -0.03180 7.00607 35955 ft 489 kts 327°
2026-05-08 15:11 0.02337 6.96717 35957 ft 489 kts 327°
2026-05-08 15:12 0.07897 6.92799 35956 ft 489 kts 327°
2026-05-08 15:12 0.13452 6.88886 35956 ft 488 kts 327°
2026-05-08 15:13 0.19006 6.84972 35956 ft 488 kts 327°
2026-05-08 15:13 0.24560 6.81061 35956 ft 488 kts 327°
2026-05-08 15:14 0.30108 6.77155 35955 ft 488 kts 327°
2026-05-08 15:14 0.35682 6.73246 35953 ft 487 kts 329°
2026-05-08 15:15 0.41469 6.69756 35956 ft 485 kts 334°
2026-05-08 15:15 0.47420 6.66586 35956 ft 485 kts 335°
2026-05-08 15:16 0.53384 6.63426 35956 ft 484 kts 335°
2026-05-08 15:16 0.59335 6.60270 35956 ft 484 kts 335°
2026-05-08 15:17 0.65291 6.57108 35956 ft 484 kts 335°
2026-05-08 15:17 0.71244 6.53947 35956 ft 485 kts 335°
2026-05-08 15:18 0.77201 6.50783 35956 ft 485 kts 335°
2026-05-08 15:18 0.83161 6.47614 35935 ft 486 kts 335°
2026-05-08 15:19 0.89145 6.44437 35891 ft 487 kts 335°
2026-05-08 15:19 0.95131 6.41259 35883 ft 487 kts 335°
2026-05-08 15:20 1.01088 6.38094 35882 ft 487 kts 335°
2026-05-08 15:20 1.07074 6.34913 35862 ft 487 kts 335°
2026-05-08 15:21 1.13056 6.31737 35879 ft 487 kts 335°
2026-05-08 15:21 1.19038 6.28559 35879 ft 487 kts 335°
2026-05-08 15:22 1.24017 6.25915 35879 ft 487 kts 335°
2026-05-08 15:22 1.30000 6.22737 35865 ft 487 kts 335°
2026-05-08 15:23 1.35986 6.19559 35863 ft 487 kts 335°
2026-05-08 15:23 1.41968 6.16385 35881 ft 487 kts 335°
2026-05-08 15:24 1.47948 6.13209 35863 ft 487 kts 335°
2026-05-08 15:24 1.53936 6.10027 35865 ft 487 kts 335°
2026-05-08 15:25 1.59926 6.06849 35881 ft 487 kts 335°
2026-05-08 15:25 1.65909 6.03681 35863 ft 487 kts 335°
2026-05-08 15:26 1.71898 6.00506 35863 ft 487 kts 335°
2026-05-08 15:26 1.77862 5.97314 35880 ft 487 kts 335°
2026-05-08 15:27 1.83834 5.94110 35861 ft 487 kts 335°
2026-05-08 15:27 1.89810 5.90910 35871 ft 487 kts 335°
2026-05-08 15:28 1.95740 5.87737 35881 ft 487 kts 335°
2026-05-08 15:28 2.01749 5.84521 35863 ft 487 kts 335°
2026-05-08 15:29 2.07683 5.81346 35867 ft 487 kts 335°
2026-05-08 15:29 2.13660 5.78148 35880 ft 487 kts 335°
2026-05-08 15:30 2.19633 5.74953 35876 ft 487 kts 335°
2026-05-08 15:30 2.25607 5.71756 35869 ft 487 kts 335°
2026-05-08 15:31 2.31586 5.68558 35881 ft 487 kts 335°
2026-05-08 15:31 2.37563 5.65360 35865 ft 487 kts 335°
2026-05-08 15:32 2.43540 5.62163 35867 ft 487 kts 335°
2026-05-08 15:32 2.49519 5.58965 35880 ft 487 kts 335°
2026-05-08 15:33 2.55502 5.55764 35869 ft 487 kts 335°
2026-05-08 15:33 2.61480 5.52559 35879 ft 487 kts 335°
2026-05-08 15:34 2.67465 5.49349 35867 ft 488 kts 335°
2026-05-08 15:34 2.73449 5.46145 35876 ft 488 kts 335°
2026-05-08 15:35 2.79433 5.42943 35864 ft 488 kts 335°
2026-05-08 15:35 2.85374 5.39763 35860 ft 488 kts 335°
2026-05-08 15:36 2.91358 5.36560 35873 ft 488 kts 335°
2026-05-08 15:36 2.97346 5.33355 35863 ft 488 kts 335°
2026-05-08 15:37 3.03324 5.30156 35880 ft 488 kts 334°
2026-05-08 15:37 3.09302 5.26955 35860 ft 488 kts 334°
2026-05-08 15:38 3.15294 5.23748 35863 ft 488 kts 334°
2026-05-08 15:38 3.21283 5.20540 35883 ft 488 kts 334°
2026-05-08 15:39 3.27267 5.17334 35882 ft 488 kts 334°
2026-05-08 15:39 3.33257 5.14125 35883 ft 488 kts 334°
2026-05-08 15:40 3.39248 5.10916 35882 ft 488 kts 334°
2026-05-08 15:40 3.45234 5.07709 35882 ft 488 kts 334°
2026-05-08 15:41 3.51232 5.04495 35882 ft 488 kts 334°
2026-05-08 15:41 3.57222 5.01287 35881 ft 488 kts 334°
2026-05-08 15:42 3.63211 4.98076 35882 ft 488 kts 334°
2026-05-08 15:42 3.69200 4.94866 35882 ft 488 kts 334°
2026-05-08 15:43 3.75189 4.91655 35881 ft 488 kts 334°
2026-05-08 15:43 3.81142 4.88463 35880 ft 488 kts 334°
2026-05-08 15:44 3.87134 4.85252 35881 ft 488 kts 334°
2026-05-08 15:44 3.93129 4.82042 35882 ft 488 kts 334°
2026-05-08 15:45 3.99118 4.78831 35882 ft 488 kts 334°
2026-05-08 15:45 4.05099 4.75619 35890 ft 488 kts 334°
2026-05-08 15:46 4.11084 4.72405 35898 ft 488 kts 334°
2026-05-08 15:46 4.17074 4.69193 35900 ft 488 kts 334°
2026-05-08 15:47 4.23065 4.65982 35901 ft 488 kts 334°
2026-05-08 15:47 4.29052 4.62773 35900 ft 488 kts 334°
2026-05-08 15:48 4.38034 4.57962 35895 ft 488 kts 334°
2026-05-08 15:49 4.44030 4.54750 35892 ft 488 kts 334°
2026-05-08 15:49 4.50015 4.51534 35891 ft 488 kts 334°
2026-05-08 15:50 4.55998 4.48320 35891 ft 488 kts 334°
2026-05-08 15:50 4.61992 4.45105 35892 ft 488 kts 334°
2026-05-08 15:51 4.67980 4.41893 35891 ft 488 kts 334°
2026-05-08 15:51 4.73970 4.38678 35891 ft 488 kts 334°
2026-05-08 15:52 4.79918 4.35487 35891 ft 488 kts 334°
2026-05-08 15:52 4.85902 4.32275 35892 ft 488 kts 334°
2026-05-08 15:53 4.91889 4.29060 35891 ft 488 kts 334°
2026-05-08 15:53 4.97875 4.25845 35891 ft 488 kts 334°
2026-05-08 15:54 5.03853 4.22635 35891 ft 488 kts 334°
2026-05-08 15:54 5.09844 4.19417 35891 ft 488 kts 334°
2026-05-08 15:55 5.15825 4.16203 35892 ft 488 kts 334°
2026-05-08 15:55 5.24806 4.11377 35891 ft 488 kts 334°
2026-05-08 15:56 5.30789 4.08160 35895 ft 488 kts 334°
2026-05-08 15:56 5.36773 4.04943 35899 ft 488 kts 334°
2026-05-08 15:57 5.42755 4.01727 35900 ft 488 kts 333°
2026-05-08 15:57 5.48737 3.98510 35900 ft 488 kts 333°
2026-05-08 15:58 5.54726 3.95288 35901 ft 488 kts 333°
2026-05-08 15:58 5.60713 3.92066 35901 ft 488 kts 333°
2026-05-08 15:59 5.66698 3.88845 35896 ft 488 kts 333°
2026-05-08 15:59 5.72665 3.85562 35892 ft 489 kts 330°
2026-05-08 16:00 5.78151 3.81506 35898 ft 491 kts 320°
2026-05-08 16:00 5.83204 3.76881 35902 ft 491 kts 319°
2026-05-08 16:01 5.88231 3.72214 35901 ft 491 kts 319°
2026-05-08 16:01 5.93261 3.67561 35900 ft 491 kts 319°
2026-05-08 16:02 5.98302 3.62909 35898 ft 492 kts 319°
2026-05-08 16:02 6.03340 3.58265 35900 ft 491 kts 319°
2026-05-08 16:03 6.08372 3.53624 35900 ft 491 kts 319°
2026-05-08 16:03 6.13410 3.48977 35896 ft 491 kts 319°
2026-05-08 16:04 6.18442 3.44334 35896 ft 491 kts 319°
2026-05-08 16:04 6.23439 3.39723 35905 ft 490 kts 319°
2026-05-08 16:05 6.28469 3.35081 35901 ft 490 kts 319°
2026-05-08 16:05 6.33495 3.30443 35901 ft 490 kts 319°
2026-05-08 16:06 6.38526 3.25801 35900 ft 490 kts 319°
2026-05-08 16:06 6.43553 3.21162 35898 ft 490 kts 320°
2026-05-08 16:07 6.46344 3.19198 35841 ft 486 kts 337°
2026-05-08 16:07 6.49562 3.18280 35886 ft 482 kts 356°
2026-05-08 16:07 6.52900 3.18401 35921 ft 480 kts
2026-05-08 16:07 6.56210 3.18842 35909 ft 480 kts
2026-05-08 16:08 6.62878 3.19367 35902 ft 481 kts
2026-05-08 16:08 6.69570 3.19414 35900 ft 481 kts
2026-05-08 16:09 6.75143 3.19331 35900 ft 482 kts 360°
2026-05-08 16:09 6.81830 3.19454 35851 ft 480 kts 13°
2026-05-08 16:10 6.84922 3.20657 35865 ft 478 kts 32°
2026-05-08 16:10 6.87428 3.22831 35890 ft 478 kts 51°
2026-05-08 16:10 6.89065 3.25731 35895 ft 480 kts 70°
2026-05-08 16:10 6.89649 3.29031 35897 ft 482 kts 89°
2026-05-08 16:11 6.89103 3.32361 35899 ft 486 kts 109°
2026-05-08 16:11 6.87479 3.35351 35899 ft 490 kts 128°
2026-05-08 16:11 6.84981 3.37626 35895 ft 481 kts 147°
2026-05-08 16:11 6.81962 3.38931 35901 ft 467 kts 166°
2026-05-08 16:12 6.78780 3.39213 35895 ft 454 kts 185°
2026-05-08 16:12 6.75770 3.38473 35890 ft 440 kts 205°
2026-05-08 16:12 6.73256 3.36827 35897 ft 430 kts 225°
2026-05-08 16:12 6.71426 3.34452 35927 ft 429 kts 239°
2026-05-08 16:13 6.69762 3.31965 35901 ft 429 kts 228°
2026-05-08 16:13 6.67554 3.29959 35906 ft 429 kts 212°
2026-05-08 16:13 6.64902 3.28602 35905 ft 428 kts 197°
2026-05-08 16:13 6.62003 3.27994 35901 ft 426 kts 181°
2026-05-08 16:14 6.59059 3.28176 35904 ft 423 kts 166°
2026-05-08 16:14 6.56279 3.29081 35921 ft 421 kts 157°
2026-05-08 16:14 6.50673 3.30828 35913 ft 422 kts 163°
2026-05-08 16:15 6.45003 3.32360 35905 ft 422 kts 163°
2026-05-08 16:15 6.39326 3.33880 35902 ft 422 kts 163°
2026-05-08 16:16 6.33697 3.35387 35900 ft 422 kts 163°
2026-05-08 16:16 6.28028 3.36904 35901 ft 421 kts 163°
2026-05-08 16:17 6.22353 3.38419 35901 ft 422 kts 163°
2026-05-08 16:17 6.16685 3.39924 35899 ft 422 kts 163°
2026-05-08 16:18 6.11003 3.41432 35886 ft 422 kts 163°
2026-05-08 16:18 6.05334 3.42942 35884 ft 422 kts 163°
2026-05-08 16:19 5.99661 3.44450 35883 ft 422 kts 163°
2026-05-08 16:19 5.93988 3.45946 35881 ft 421 kts 163°
2026-05-08 16:20 5.88316 3.47434 35865 ft 421 kts 163°
2026-05-08 16:20 5.82655 3.48920 35874 ft 421 kts 163°
2026-05-08 16:21 5.76992 3.50407 35870 ft 421 kts 163°
2026-05-08 16:21 5.71324 3.51884 35864 ft 421 kts 163°
2026-05-08 16:22 5.65650 3.53360 35869 ft 421 kts 163°
2026-05-08 16:22 5.60021 3.54826 35872 ft 421 kts 163°
2026-05-08 16:23 5.54320 3.56311 35882 ft 421 kts 163°
2026-05-08 16:23 5.48691 3.57777 35876 ft 420 kts 163°
2026-05-08 16:24 5.42991 3.59262 35865 ft 420 kts 163°
2026-05-08 16:24 5.37362 3.60730 35873 ft 420 kts 163°
2026-05-08 16:25 5.31698 3.62199 35863 ft 420 kts 163°
2026-05-08 16:25 5.26031 3.63664 35875 ft 420 kts 163°
2026-05-08 16:26 5.20373 3.65127 35873 ft 420 kts 163°
2026-05-08 16:26 5.14663 3.66604 35872 ft 420 kts 163°
2026-05-08 16:27 5.09035 3.68054 35863 ft 420 kts 163°
2026-05-08 16:27 5.03335 3.69514 35871 ft 420 kts 163°
2026-05-08 16:28 4.97704 3.70956 35881 ft 420 kts 163°
2026-05-08 16:28 4.92031 3.72399 35879 ft 421 kts 163°
2026-05-08 16:29 4.86358 3.73840 35869 ft 420 kts 163°
2026-05-08 16:29 4.80682 3.75271 35880 ft 420 kts 163°
2026-05-08 16:30 4.75007 3.76700 35873 ft 420 kts 163°
2026-05-08 16:30 4.69335 3.78130 35881 ft 421 kts 163°
2026-05-08 16:31 4.63656 3.79564 35880 ft 421 kts 163°
2026-05-08 16:31 4.57978 3.80991 35868 ft 421 kts 163°
2026-05-08 16:32 4.52293 3.82414 35876 ft 421 kts 163°
2026-05-08 16:32 4.46606 3.83829 35863 ft 421 kts 163°
2026-05-08 16:33 4.40922 3.85239 35880 ft 421 kts 163°
2026-05-08 16:33 4.35232 3.86652 35869 ft 421 kts 163°
2026-05-08 16:34 4.29544 3.88065 35878 ft 421 kts 163°
2026-05-08 16:34 4.23860 3.89478 35864 ft 421 kts 163°
2026-05-08 16:35 4.18177 3.90891 35874 ft 421 kts 163°
2026-05-08 16:35 4.12533 3.92296 35880 ft 421 kts 163°
2026-05-08 16:36 4.06848 3.93711 35868 ft 421 kts 163°
2026-05-08 16:36 4.01169 3.95126 35874 ft 421 kts 163°
2026-05-08 16:37 3.95448 3.96551 35868 ft 421 kts 163°
2026-05-08 16:37 3.89807 3.97959 35866 ft 421 kts 163°
2026-05-08 16:38 3.84121 3.99377 35880 ft 421 kts 163°
2026-05-08 16:38 3.78443 4.00795 35860 ft 421 kts 163°
2026-05-08 16:39 3.72768 4.02213 35865 ft 421 kts 163°
2026-05-08 16:39 3.67082 4.03636 35864 ft 421 kts 163°
2026-05-08 16:40 3.61408 4.05055 35871 ft 421 kts 163°
2026-05-08 16:40 3.55730 4.06478 35862 ft 421 kts 163°
2026-05-08 16:41 3.50046 4.07903 35862 ft 420 kts 163°
2026-05-08 16:42 3.41525 4.10023 35864 ft 421 kts 163°
2026-05-08 16:42 3.35848 4.11444 35871 ft 421 kts 163°
2026-05-08 16:43 3.30174 4.12869 35871 ft 421 kts 163°
2026-05-08 16:43 3.24494 4.14297 35862 ft 421 kts 163°
2026-05-08 16:44 3.18815 4.15726 35867 ft 421 kts 163°
2026-05-08 16:44 3.13179 4.17145 35861 ft 421 kts 163°
2026-05-08 16:45 3.07501 4.18575 35868 ft 421 kts 163°
2026-05-08 16:45 3.01831 4.20004 35871 ft 420 kts 163°
2026-05-08 16:46 2.96154 4.21436 35872 ft 420 kts 163°
2026-05-08 16:46 2.90482 4.22877 35866 ft 420 kts 163°
2026-05-08 16:47 2.84820 4.24320 35857 ft 420 kts 163°
2026-05-08 16:47 2.79154 4.25761 35857 ft 420 kts 163°
2026-05-08 16:48 2.73489 4.27202 35858 ft 420 kts 163°
2026-05-08 16:48 2.67817 4.28652 35861 ft 420 kts 163°
2026-05-08 16:49 2.62151 4.30101 35862 ft 420 kts 163°
2026-05-08 16:49 2.56491 4.31549 35862 ft 420 kts 163°
2026-05-08 16:50 2.50825 4.33000 35858 ft 420 kts 163°
2026-05-08 16:50 2.45159 4.34453 35869 ft 420 kts 163°
2026-05-08 16:51 2.39498 4.35904 35856 ft 420 kts 163°
2026-05-08 16:51 2.33844 4.37365 35852 ft 420 kts 163°
2026-05-08 16:52 2.28191 4.38831 35848 ft 420 kts 163°
2026-05-08 16:52 2.22534 4.40298 35861 ft 420 kts 163°
2026-05-08 16:53 2.14055 4.42499 35861 ft 420 kts 163°
2026-05-08 16:53 2.08442 4.43957 35852 ft 420 kts 163°
2026-05-08 16:54 2.02786 4.45428 35854 ft 420 kts 163°
2026-05-08 16:54 1.97138 4.46897 35853 ft 420 kts 162°
2026-05-08 16:55 1.91487 4.48369 35849 ft 420 kts 162°
2026-05-08 16:55 1.85835 4.49843 35850 ft 420 kts 162°
2026-05-08 16:56 1.80178 4.51319 35854 ft 420 kts 162°
2026-05-08 16:56 1.74524 4.52788 35849 ft 420 kts 162°
2026-05-08 16:57 1.69824 4.54005 35861 ft 420 kts 162°
2026-05-08 16:57 1.64164 4.55471 35858 ft 420 kts 162°
2026-05-08 16:58 1.58510 4.56936 35853 ft 420 kts 162°
2026-05-08 16:58 1.52850 4.58406 35858 ft 420 kts 162°
2026-05-08 16:59 1.47191 4.59876 35858 ft 420 kts 162°
2026-05-08 16:59 1.41535 4.61347 35857 ft 420 kts 162°
2026-05-08 17:00 1.35876 4.62820 35847 ft 420 kts 162°
2026-05-08 17:00 1.30211 4.64287 35854 ft 420 kts 162°
2026-05-08 17:01 1.24553 4.65748 35850 ft 420 kts 162°
2026-05-08 17:01 1.18886 4.67214 35856 ft 421 kts 162°
2026-05-08 17:02 1.13216 4.68682 35850 ft 421 kts 162°
2026-05-08 17:02 1.07595 4.70138 35861 ft 420 kts 162°
2026-05-08 17:03 1.01922 4.71609 35856 ft 421 kts 162°
2026-05-08 17:03 0.96254 4.73081 35854 ft 421 kts 162°
2026-05-08 17:04 0.90588 4.74553 35849 ft 421 kts 162°
2026-05-08 17:04 0.84923 4.76027 35854 ft 421 kts 162°
2026-05-08 17:05 0.79262 4.77501 35850 ft 421 kts 162°
2026-05-08 17:05 0.73591 4.78981 35855 ft 421 kts 162°
2026-05-08 17:06 0.67918 4.80460 35856 ft 421 kts 162°
2026-05-08 17:06 0.62243 4.81931 35847 ft 421 kts 162°
2026-05-08 17:07 0.56568 4.83405 35849 ft 421 kts 162°
2026-05-08 17:07 0.50895 4.84890 35851 ft 421 kts 162°
2026-05-08 17:08 0.45227 4.86376 35853 ft 421 kts 162°
2026-05-08 17:08 0.39556 4.87864 35854 ft 421 kts 162°
2026-05-08 17:09 0.33928 4.89343 35850 ft 421 kts 162°
2026-05-08 17:09 0.28256 4.90836 35853 ft 421 kts 162°
2026-05-08 17:10 0.22590 4.92327 35855 ft 421 kts 162°
2026-05-08 17:10 0.16924 4.93818 35851 ft 421 kts 162°
2026-05-08 17:11 0.11263 4.95310 35854 ft 421 kts 162°
2026-05-08 17:11 0.05597 4.96805 35861 ft 421 kts 162°
2026-05-08 17:12 -0.00073 4.98303 35854 ft 421 kts 162°
2026-05-08 17:12 -0.05733 4.99805 35852 ft 421 kts 162°
2026-05-08 17:13 -0.11387 5.01313 35851 ft 421 kts 162°
2026-05-08 17:13 -0.17040 5.02821 35850 ft 420 kts 162°
2026-05-08 17:14 -0.22710 5.04334 35850 ft 420 kts 162°
2026-05-08 17:14 -0.28358 5.05842 35850 ft 420 kts 162°
2026-05-08 17:15 -0.33663 5.08128 35845 ft 414 kts 143°
2026-05-08 17:15 -0.37904 5.11922 35849 ft 407 kts 126°
2026-05-08 17:16 -0.40780 5.16726 35855 ft 400 kts 109°
2026-05-08 17:16 -0.41633 5.19346 35696 ft 392 kts 101°
2026-05-08 17:16 -0.42078 5.21983 35250 ft 388 kts 92°
2026-05-08 17:17 -0.42127 5.24673 34761 ft 385 kts 84°
2026-05-08 17:17 -0.41788 5.27320 34333 ft 381 kts 76°
2026-05-08 17:17 -0.41085 5.29864 33929 ft 377 kts 69°
2026-05-08 17:17 -0.40043 5.32255 33539 ft 373 kts 61°
2026-05-08 17:18 -0.38687 5.34460 33149 ft 369 kts 53°
2026-05-08 17:18 -0.37058 5.36431 32774 ft 365 kts 46°
2026-05-08 17:18 -0.35197 5.38139 32390 ft 362 kts 38°
2026-05-08 17:18 -0.33137 5.39567 32022 ft 359 kts 31°
2026-05-08 17:19 -0.30927 5.40689 31878 ft 355 kts 24°
2026-05-08 17:19 -0.28583 5.41513 31869 ft 358 kts 17°
2026-05-08 17:19 -0.23583 5.42195 31869 ft 376 kts
2026-05-08 17:20 -0.20923 5.42002 31871 ft 391 kts 354°
2026-05-08 17:20 -0.18218 5.41398 31875 ft 407 kts 346°
2026-05-08 17:20 -0.15529 5.40347 31868 ft 423 kts 337°
2026-05-08 17:20 -0.12944 5.38828 31875 ft 439 kts 328°
2026-05-08 17:21 -0.10557 5.36833 31868 ft 455 kts 318°
2026-05-08 17:21 -0.08475 5.34380 31872 ft 471 kts 308°
2026-05-08 17:21 -0.06801 5.31505 31865 ft 486 kts 297°
2026-05-08 17:21 -0.05644 5.28285 31872 ft 500 kts 287°
2026-05-08 17:22 -0.05091 5.24805 31869 ft 512 kts 275°
2026-05-08 17:22 -0.05212 5.21234 31861 ft 517 kts 264°
2026-05-08 17:22 -0.06025 5.17725 31859 ft 520 kts 252°
2026-05-08 17:22 -0.07510 5.14421 31869 ft 521 kts 240°
2026-05-08 17:23 -0.09617 5.11462 31861 ft 521 kts 229°
2026-05-08 17:23 -0.12221 5.09000 31862 ft 520 kts 217°
2026-05-08 17:23 -0.15274 5.07072 31861 ft 518 kts 205°
2026-05-08 17:23 -0.18626 5.05765 31872 ft 516 kts 195°
2026-05-08 17:24 -0.22050 5.04501 31824 ft 518 kts 207°
2026-05-08 17:24 -0.24944 5.02357 31855 ft 519 kts 224°
2026-05-08 17:24 -0.27249 4.99598 31868 ft 519 kts 236°
2026-05-08 17:24 -0.29045 4.96527 31866 ft 519 kts 244°
2026-05-08 17:25 -0.31558 4.89753 31854 ft 516 kts 262°
2026-05-08 17:25 -0.31818 4.86116 31858 ft 514 kts 273°
2026-05-08 17:25 -0.31454 4.82578 31860 ft 511 kts 283°
2026-05-08 17:26 -0.29081 4.76008 31860 ft 504 kts 302°
2026-05-08 17:26 -0.24757 4.70561 31865 ft 497 kts 321°
2026-05-08 17:27 -0.18996 4.66864 31863 ft 490 kts 339°
2026-05-08 17:27 -0.12477 4.65135 31872 ft 485 kts 352°
2026-05-08 17:28 -0.09246 4.64085 31825 ft 490 kts 336°
2026-05-08 17:28 -0.06182 4.62565 31852 ft 490 kts 341°
2026-05-08 17:28 -0.02869 4.61835 31831 ft 491 kts 360°
2026-05-08 17:28 0.00543 4.62060 31878 ft 495 kts
2026-05-08 17:29 0.07430 4.61593 31864 ft 509 kts 343°
2026-05-08 17:29 0.13765 4.58312 31867 ft 514 kts 334°
2026-05-08 17:30 0.17086 4.57088 31825 ft 506 kts 351°
2026-05-08 17:30 0.20550 4.56701 31875 ft 504 kts 358°
2026-05-08 17:30 0.24009 4.56084 31812 ft 509 kts 343°
2026-05-08 17:30 0.27189 4.54451 31868 ft 516 kts 329°
2026-05-08 17:31 0.32676 4.49766 31861 ft 517 kts 325°
2026-05-08 17:31 0.35694 4.47860 31862 ft 513 kts 336°
2026-05-08 17:31 0.39000 4.46571 31862 ft 508 kts 346°
2026-05-08 17:32 0.45902 4.45094 31867 ft 506 kts 353°
2026-05-08 17:32 0.52853 4.43961 31858 ft 506 kts 353°
2026-05-08 17:33 0.59807 4.42843 31852 ft 506 kts 353°
2026-05-08 17:33 0.66721 4.41861 31852 ft 505 kts 355°
2026-05-08 17:34 0.73705 4.40987 31850 ft 505 kts 355°
2026-05-08 17:34 0.80686 4.40120 31853 ft 506 kts 355°
2026-05-08 17:35 0.87665 4.39253 31860 ft 505 kts 355°
2026-05-08 17:35 0.94647 4.38378 31853 ft 505 kts 355°
2026-05-08 17:36 1.01628 4.37502 31850 ft 506 kts 355°
2026-05-08 17:36 1.08610 4.36626 31861 ft 506 kts 355°
2026-05-08 17:37 1.15603 4.35744 31861 ft 506 kts 355°
2026-05-08 17:37 1.22589 4.34856 31854 ft 506 kts 355°
2026-05-08 17:38 1.29563 4.33970 31855 ft 506 kts 355°
2026-05-08 17:38 1.36564 4.33081 31858 ft 506 kts 355°
2026-05-08 17:39 1.43550 4.32194 31854 ft 506 kts 355°
2026-05-08 17:39 1.50542 4.31306 31851 ft 507 kts 355°
2026-05-08 17:40 1.57547 4.30418 31855 ft 507 kts 355°
2026-05-08 17:40 1.64546 4.29530 31852 ft 507 kts 355°
2026-05-08 17:41 1.71501 4.28649 31850 ft 507 kts 355°
2026-05-08 17:41 1.78510 4.27761 31851 ft 508 kts 355°
2026-05-08 17:42 1.85528 4.26874 31861 ft 508 kts 355°
2026-05-08 17:42 1.92534 4.25990 31851 ft 508 kts 355°
2026-05-08 17:43 1.99546 4.25107 31854 ft 508 kts 355°
2026-05-08 17:43 2.06556 4.24226 31853 ft 508 kts 355°
2026-05-08 17:44 2.13562 4.23343 31858 ft 507 kts 355°
2026-05-08 17:44 2.20556 4.22428 31853 ft 507 kts 355°
2026-05-08 17:45 2.27542 4.21507 31858 ft 506 kts 355°
2026-05-08 17:45 2.34505 4.20596 31852 ft 498 kts 356°
2026-05-08 17:46 2.40169 4.19872 31856 ft 490 kts 356°
2026-05-08 17:46 2.46876 4.19750 31856 ft 472 kts
2026-05-08 17:47 2.53284 4.18803 31857 ft 456 kts 351°
2026-05-08 17:47 2.59344 4.17442 31855 ft 437 kts 351°
2026-05-08 17:48 2.65146 4.16104 31850 ft 419 kts 351°
2026-05-08 17:48 2.70724 4.14964 31862 ft 399 kts 354°
2026-05-08 17:49 2.76087 4.14070 31858 ft 382 kts 354°
2026-05-08 17:49 2.81203 4.13214 31857 ft 364 kts 354°
2026-05-08 17:50 2.86042 4.12390 31853 ft 347 kts 355°
2026-05-08 17:50 2.90788 4.11573 31865 ft 344 kts 355°
2026-05-08 17:51 2.95477 4.10768 31864 ft 341 kts 355°
2026-05-08 17:51 3.00234 4.09980 31868 ft 351 kts 355°
2026-05-08 17:52 3.05198 4.09229 31869 ft 371 kts 360°
2026-05-08 17:53 3.12870 4.08442 31854 ft 368 kts
2026-05-08 17:53 3.17918 4.09041 31869 ft 373 kts 20°
2026-05-08 17:54 3.22700 4.11357 31867 ft 394 kts 38°
2026-05-08 17:54 3.24823 4.13155 31873 ft 405 kts 47°
2026-05-08 17:54 3.26644 4.15352 31867 ft 416 kts 56°
2026-05-08 17:54 3.28080 4.17908 31871 ft 427 kts 66°
2026-05-08 17:55 3.29046 4.20760 31865 ft 439 kts 76°
2026-05-08 17:55 3.29467 4.23827 31869 ft 451 kts 85°
2026-05-08 17:55 3.29698 4.26996 31868 ft 460 kts 79°
2026-05-08 17:55 3.30550 4.30110 31870 ft 468 kts 68°
2026-05-08 17:56 3.32064 4.33028 31870 ft 477 kts 57°
2026-05-08 17:56 3.34181 4.35611 31862 ft 482 kts 45°
2026-05-08 17:56 3.36719 4.37812 31871 ft 484 kts 40°
2026-05-08 17:57 3.42042 4.41870 31868 ft 484 kts 38°
2026-05-08 17:57 3.47814 4.45445 31864 ft 486 kts 30°
2026-05-08 17:58 3.53462 4.49060 31856 ft 485 kts 35°
2026-05-08 17:58 3.59273 4.52505 31867 ft 486 kts 31°
2026-05-08 17:59 3.65175 4.55831 31864 ft 486 kts 31°
2026-05-08 17:59 3.71075 4.59147 31862 ft 486 kts 31°
2026-05-08 18:00 3.76984 4.62472 31864 ft 486 kts 31°
2026-05-08 18:00 3.85835 4.67460 31866 ft 486 kts 31°
2026-05-08 18:01 3.92110 4.69971 31854 ft 492 kts 14°
2026-05-08 18:01 3.98980 4.70279 31862 ft 500 kts 356°
2026-05-08 18:02 4.04613 4.68846 31861 ft 508 kts 341°
2026-05-08 18:02 4.12147 4.65368 31868 ft 509 kts 341°
2026-05-08 18:03 4.18694 4.62692 31864 ft 508 kts 341°
2026-05-08 18:03 4.25153 4.59758 31871 ft 511 kts 336°
2026-05-08 18:04 4.31501 4.56554 31873 ft 511 kts 336°
2026-05-08 18:04 4.37848 4.53340 31872 ft 511 kts 336°
2026-05-08 18:05 4.44193 4.50128 31874 ft 511 kts 336°
2026-05-08 18:05 4.50499 4.46938 31874 ft 511 kts 336°
2026-05-08 18:06 4.56847 4.43726 31874 ft 511 kts 336°
2026-05-08 18:06 4.63164 4.40446 31873 ft 512 kts 334°
2026-05-08 18:07 4.69435 4.37064 31874 ft 511 kts 335°
2026-05-08 18:07 4.75734 4.33748 31871 ft 511 kts 335°
2026-05-08 18:08 4.82039 4.30436 31875 ft 511 kts 335°
2026-05-08 18:08 4.88342 4.27139 31874 ft 511 kts 335°
2026-05-08 18:09 4.94650 4.23841 31874 ft 511 kts 335°
2026-05-08 18:09 5.00960 4.20544 31875 ft 511 kts 335°
2026-05-08 18:10 5.07287 4.17247 31872 ft 511 kts 335°
2026-05-08 18:10 5.13602 4.13967 31875 ft 511 kts 335°
2026-05-08 18:11 5.19934 4.10690 31871 ft 511 kts 335°
2026-05-08 18:11 5.26262 4.07428 31875 ft 511 kts 335°
2026-05-08 18:12 5.32595 4.04167 31872 ft 511 kts 335°
2026-05-08 18:12 5.38925 4.00913 31872 ft 511 kts 335°
2026-05-08 18:13 5.45225 3.97688 31874 ft 512 kts 335°
2026-05-08 18:13 5.51583 3.94446 31875 ft 513 kts 335°
2026-05-08 18:14 5.57952 3.91202 31874 ft 513 kts 335°
2026-05-08 18:14 5.64359 3.88095 31870 ft 506 kts 339°
2026-05-08 18:15 5.67586 3.86729 31769 ft 495 kts 340°
2026-05-08 18:15 5.70740 3.85409 31381 ft 488 kts 339°
2026-05-08 18:15 5.73775 3.83921 30986 ft 484 kts 334°
2026-05-08 18:15 5.76683 3.82159 31037 ft 489 kts 329°
2026-05-08 18:16 5.79442 3.80170 30933 ft 485 kts 324°
2026-05-08 18:16 5.82001 3.77992 30543 ft 480 kts 320°
2026-05-08 18:16 5.84464 3.75741 30141 ft 474 kts 320°
2026-05-08 18:16 5.86939 3.73447 29745 ft 490 kts 320°
2026-05-08 18:17 5.89434 3.71059 29345 ft 498 kts 319°
2026-05-08 18:17 5.91964 3.68665 28797 ft 501 kts 320°
2026-05-08 18:17 5.94552 3.66279 27909 ft 508 kts 320°
2026-05-08 18:17 5.97162 3.63890 27023 ft 509 kts 320°
2026-05-08 18:18 5.99775 3.61495 26359 ft 505 kts 320°
2026-05-08 18:18 6.02357 3.59123 25672 ft 501 kts 320°
2026-05-08 18:18 6.04915 3.56768 25032 ft 496 kts 320°
2026-05-08 18:18 6.07454 3.54432 24385 ft 492 kts 320°
2026-05-08 18:19 6.09970 3.52116 23727 ft 488 kts 320°
2026-05-08 18:19 6.12469 3.49816 23066 ft 484 kts 320°
2026-05-08 18:19 6.14942 3.47537 22423 ft 480 kts 320°
2026-05-08 18:19 6.17400 3.45274 21793 ft 476 kts 320°
2026-05-08 18:20 6.19828 3.43037 21147 ft 472 kts 320°
2026-05-08 18:20 6.22256 3.40799 20525 ft 467 kts 320°
2026-05-08 18:20 6.24644 3.38597 19902 ft 463 kts 320°
2026-05-08 18:20 6.27006 3.36418 19275 ft 459 kts 319°
2026-05-08 18:21 6.29351 3.34256 18653 ft 455 kts 319°
2026-05-08 18:21 6.31678 3.32111 18008 ft 451 kts 319°
2026-05-08 18:21 6.33983 3.29983 17425 ft 447 kts 319°
2026-05-08 18:21 6.36266 3.27874 16799 ft 444 kts 319°
2026-05-08 18:22 6.38531 3.25781 16185 ft 440 kts 320°
2026-05-08 18:22 6.40772 3.23711 15596 ft 436 kts 320°
2026-05-08 18:22 6.42997 3.21656 15009 ft 432 kts 320°
2026-05-08 18:22 6.45339 3.19827 14380 ft 423 kts 334°
2026-05-08 18:23 6.48085 3.18968 13801 ft 407 kts 358°
2026-05-08 18:23 6.50891 3.19016 13250 ft 398 kts
2026-05-08 18:23 6.53644 3.19225 12651 ft 395 kts
2026-05-08 18:23 6.56375 3.19374 12080 ft 391 kts
2026-05-08 18:24 6.59041 3.19445 11524 ft 387 kts
2026-05-08 18:24 6.61723 3.19468 10903 ft 385 kts
2026-05-08 18:24 6.64402 3.19459 10239 ft 384 kts
2026-05-08 18:24 6.67063 3.19432 9585 ft 382 kts
2026-05-08 18:25 6.69725 3.19396 8939 ft 381 kts
2026-05-08 18:25 6.72376 3.19356 8288 ft 380 kts
2026-05-08 18:25 6.75010 3.19313 7664 ft 378 kts
2026-05-08 18:25 6.77647 3.19268 7054 ft 376 kts 360°
2026-05-08 18:26 6.80250 3.19285 6582 ft 369 kts
2026-05-08 18:26 6.82649 3.20083 6160 ft 359 kts 32°
2026-05-08 18:26 6.84394 3.21805 5659 ft 348 kts 59°
2026-05-08 18:26 6.85145 3.24065 5181 ft 339 kts 87°
2026-05-08 18:27 6.84766 3.26352 4716 ft 329 kts 115°
2026-05-08 18:27 6.84009 3.27663 4446 ft 324 kts 124°
2026-05-08 18:27 6.82334 3.30065 3800 ft 301 kts 136°
2026-05-08 18:27 6.80612 3.31094 3325 ft 277 kts 163°
2026-05-08 18:28 6.78811 3.31269 3187 ft 246 kts 181°
2026-05-08 18:28 6.77195 3.31200 3035 ft 219 kts 184°
2026-05-08 18:28 6.75748 3.31149 2977 ft 197 kts 182°
2026-05-08 18:28 6.74455 3.31136 2888 ft 176 kts 181°
2026-05-08 18:29 6.73288 3.31141 2813 ft 164 kts 181°
2026-05-08 18:29 6.72154 3.31149 2689 ft 162 kts 180°
2026-05-08 18:29 6.71028 3.31161 2467 ft 161 kts 179°
2026-05-08 18:29 6.69925 3.31174 2252 ft 161 kts 178°
2026-05-08 18:30 6.68789 3.31188 2039 ft 162 kts 178°
2026-05-08 18:30 6.67675 3.31203 1823 ft 162 kts 178°
2026-05-08 18:30 6.66547 3.31217 1618 ft 162 kts 178°
2026-05-08 18:30 6.65416 3.31231 1389 ft 162 kts 178°
2026-05-08 18:31 6.64293 3.31245 1173 ft 161 kts 178°
2026-05-08 18:31 6.63166 3.31259 963 ft 161 kts 178°
2026-05-08 18:31 6.62042 3.31273 747 ft 162 kts 178°
2026-05-08 18:31 6.60914 3.31287 533 ft 161 kts 178°
2026-05-08 18:32 6.59796 3.31300 317 ft 160 kts 178°
2026-05-08 18:32 6.58690 3.31314 133 ft 157 kts 179°
2026-05-08 18:32 6.57762 3.31329 103 ft 98 kts 179°
2026-05-08 18:32 6.57319 3.31342 102 ft 48 kts 181°
2026-05-08 18:33 6.56904 3.31336 104 ft 51 kts 180°
2026-05-08 18:33 6.56569 3.31370 105 ft 37 kts 160°
2026-05-08 18:33 6.56415 3.31472 103 ft 19 kts 111°
2026-05-08 18:33 6.56497 3.31549 102 ft 22 kts 354°
2026-05-08 18:34 6.56656 3.31540 102 ft 24 kts 359°
2026-05-08 18:34 6.56764 3.31541 103 ft 18 kts
2026-05-08 18:34 6.56899 3.31546 103 ft 21 kts
2026-05-08 18:34 6.57053 3.31540 103 ft 23 kts 357°
2026-05-08 18:35 6.57223 3.31536 103 ft 26 kts 359°
2026-05-08 18:35 6.57410 3.31533 104 ft 28 kts 359°
2026-05-08 18:35 6.57612 3.31529 104 ft 29 kts 359°
2026-05-08 18:35 6.57819 3.31526 106 ft 31 kts 359°
2026-05-08 18:36 6.58014 3.31543 105 ft 17 kts 32°
2026-05-08 18:36 6.58085 3.31646 107 ft 20 kts 64°
2026-05-08 18:36 6.58084 3.31771 108 ft 20 kts 144°
2026-05-08 18:36 6.57956 3.31840 107 ft 20 kts 165°
2026-05-08 18:37 6.57912 3.31882 105 ft 0 kts 53°
2026-05-08 18:37 6.57915 3.31888 107 ft 3 kts 60°
2026-05-08 18:37 6.57929 3.31915 105 ft 6 kts 64°
2026-05-08 18:37 6.57931 3.31920 105 ft 0 kts 65°
2026-05-08 18:38 6.57932 3.31921 105 ft 0 kts 65°